Home   Weather   Hendersonville   Past weeks
Flag for USA

Past Weather in Hendersonville, Tennessee, USA — Yesterday and Last 2 Weeks

Now
70 °F

Overcast.


Feels Like: 73 °F
Forecast: 83 / 68 °F
Wind: 9 mph from Northeast

Location: Nashville International Airport

Current Time: Aug 24, 2019 at 8:33:17 am

Latest Report: Aug 24, 2019 at 7:53 am


Visibility: 10 mi

Pressure: 30.08 "Hg

Humidity: 73%

Dew Point: 61 °F

Location of HendersonvilleLocation

Past Weather in Hendersonville — Graph

°F

Hendersonville Temperature Yesterday

Maximum temperature yesterday: 89 °F (at 4:53 pm)
Minimum temperature yesterday: 73 °F (at 12:53 am)
Average temperature yesterday: 78 °F

High & Low Weather Summary for the Past Weeks

 TemperatureHumidityPressure
High96 °F (Aug 13, 1:53 pm)94% (Aug 23, 4:53 am)30.11 "Hg (Aug 23, 4:53 am)
Low65 °F (Aug 16, 5:53 am)34% (Aug 18, 2:53 pm)29.83 "Hg (Aug 13, 2:56 pm)
Average81 °F67%29.97 "Hg
* Reported Aug 9 6:53 am — Aug 24 6:53 am, Hendersonville. Weather by CustomWeather, © 2019

Note: Actual official high and low records may vary slightly from our data, if they occured in-between our weather recording intervals... More about our weather records

Advertising

Hendersonville Weather History for the Previous 24 Hours

Scroll right to see more
 ConditionsComfort  
Time TempWeatherWind HumidityBarometerVisibility
6:53 am
Sat, Aug 24
71 °FOvercast.9 mph78%30.07 "Hg10 mi
5:53 am71 °FOvercast.8 mph81%30.05 "Hg10 mi
4:53 am71 °FOvercast.7 mph81%30.04 "Hg10 mi
3:53 am72 °FOvercast.10 mph81%30.03 "Hg10 mi
2:53 am73 °FOvercast.6 mph79%30.03 "Hg10 mi
1:53 am73 °FOvercast.10 mph79%30.03 "Hg10 mi
1:07 am74 °FOvercast.10 mph79%30.06 "Hg10 mi
12:53 am74 °FOvercast.10 mph79%30.04 "Hg10 mi
12:25 am74 °FMostly cloudy.10 mph79%30.06 "Hg10 mi
11:53 pm
Fri, Aug 23
75 °FOvercast.10 mph76%30.05 "Hg10 mi
10:53 pm75 °FOvercast.12 mph79%30.04 "Hg10 mi
9:53 pm76 °FMostly cloudy.13 mph77%30.03 "Hg10 mi
9:09 pm77 °FPassing clouds.13 mph77%30.04 "Hg10 mi
8:53 pm78 °FMostly cloudy.13 mph76%30.01 "Hg10 mi
7:53 pm80 °FPassing clouds.12 mph71%29.98 "Hg10 mi
6:53 pm83 °FLight rain. Passing clouds.8 mph68%29.98 "Hg9 mi
5:53 pm86 °FBroken clouds.9 mph59%29.98 "Hg10 mi
4:53 pm89 °FBroken clouds.8 mph53%29.97 "Hg10 mi
3:53 pm88 °FPartly sunny.6 mph54%29.97 "Hg10 mi
2:53 pm87 °FPartly sunny.5 mph57%29.98 "Hg10 mi
1:53 pm87 °FBroken clouds.5 mph57%30.00 "Hg10 mi
12:53 pm86 °FBroken clouds.No wind61%30.01 "Hg10 mi
11:53 am82 °FPartly sunny.No wind70%30.03 "Hg10 mi
10:53 am80 °FBroken clouds.3 mph74%30.04 "Hg10 mi
10:25 am78 °FCloudy.5 mph79%30.06 "Hg10 mi
10:12 am78 °FMostly cloudy.No wind76%30.06 "Hg10 mi
9:53 am78 °FMostly cloudy.No wind76%30.05 "Hg10 mi
9:29 am77 °FMore clouds than sun.6 mph82%30.07 "Hg10 mi
9:10 am77 °FPartly sunny.3 mph82%30.06 "Hg10 mi
8:53 am77 °FBroken clouds.3 mph82%30.04 "Hg10 mi
Weather by CustomWeather, © 2019

See weather overview